Location: Madrid
(40.4167°N, 3.7036°W)
Time: 21:15:03
(UTC+00:00)

ISS - Pass Details

Date: 12 July 2025
Orbit: 413 x 417 km, 51.6° (Epoch: 13 July)

Event Time Altitude Azimuth Distance (km) Brightness Sun altitude
Rises 00:46:23 0° 312° (NW) 2,357 0.5 -27.3°
Reaches altitude 10° 00:48:50 10° 330° (NNW) 1,493 -0.3 -27.3°
Maximum altitude 00:51:27 21° 21° (NNE) 1,010 -1.1 -27.2°
Enters shadow 00:52:03 20° 37° (NE) 1,042 -1.2 -27.2°
